timestamp,wind_dir_avg,wind_spd_max_dir,wind_spd_avg,wind_spd_gust,battery_voltage,lat,long
2018-12-14 00:00:00+00:00,285.0,292.0,8.16,9.72,,47.59359,-54.27349
2018-12-14 00:10:00+00:00,303.0,307.0,8.91,10.62,,47.59359,-54.27349
2018-12-14 00:20:00+00:00,293.0,297.0,8.9,10.14,,47.59359,-54.27349
2018-12-14 00:30:00+00:00,301.0,300.0,8.98,10.38,,47.59359,-54.27349
2018-12-14 00:40:00+00:00,294.0,300.0,8.3,10.43,,47.59359,-54.27349
2018-12-14 00:50:00+00:00,296.0,290.0,7.31,9.19,,47.59359,-54.27349
2018-12-14 01:00:00+00:00,294.0,290.0,7.5,8.96,,47.59359,-54.27349
2018-12-14 01:10:00+00:00,277.0,279.0,6.33,8.54,,47.59359,-54.27349
2018-12-14 01:20:00+00:00,276.0,268.0,6.45,8.2,,47.59359,-54.27349
2018-12-14 01:30:00+00:00,281.0,278.0,5.75,7.38,,47.59359,-54.27349
2018-12-14 01:40:00+00:00,307.0,312.0,6.92,8.84,,47.59359,-54.27349
2018-12-14 01:50:00+00:00,285.0,288.0,6.62,8.14,,47.59359,-54.27349
2018-12-14 02:00:00+00:00,285.0,284.0,8.02,9.53,,47.59359,-54.27349
2018-12-14 02:10:00+00:00,291.0,302.0,5.95,7.46,,47.59359,-54.27349
2018-12-14 02:20:00+00:00,286.0,281.0,7.29,9.37,,47.59359,-54.27349
2018-12-14 02:30:00+00:00,268.0,266.0,6.24,7.26,,47.59359,-54.27349
2018-12-14 02:40:00+00:00,285.0,279.0,7.54,9.43,,47.59359,-54.27349
2018-12-14 02:50:00+00:00,286.0,280.0,7.35,9.35,,47.59359,-54.27349
2018-12-14 03:00:00+00:00,293.0,291.0,8.25,10.21,,47.59359,-54.27349
2018-12-14 03:10:00+00:00,298.0,293.0,7.9,9.54,,47.59359,-54.27349
2018-12-14 03:20:00+00:00,293.0,297.0,9.43,10.82,,47.59359,-54.27349
2018-12-14 03:30:00+00:00,303.0,309.0,9.01,11.63,,47.59359,-54.27349
2018-12-14 03:40:00+00:00,300.0,300.0,9.4,10.92,,47.59359,-54.27349
2018-12-14 03:50:00+00:00,304.0,304.0,9.46,11.37,,47.59359,-54.27349
2018-12-14 04:00:00+00:00,301.0,312.0,10.86,12.37,,47.59359,-54.27349
2018-12-14 04:10:00+00:00,312.0,313.0,10.88,14.71,,47.59359,-54.27349
2018-12-14 04:20:00+00:00,307.0,310.0,11.92,13.52,,47.59359,-54.27349
2018-12-14 04:30:00+00:00,304.0,304.0,13.23,15.73,,47.59359,-54.27349
2018-12-14 04:40:00+00:00,300.0,309.0,11.65,13.57,,47.59359,-54.27349
2018-12-14 04:50:00+00:00,290.0,287.0,11.29,13.48,,47.59359,-54.27349
2018-12-14 05:00:00+00:00,277.0,278.0,11.26,12.87,,47.59359,-54.27349
2018-12-14 05:10:00+00:00,282.0,281.0,9.72,12.09,,47.59359,-54.27349
2018-12-14 05:20:00+00:00,294.0,285.0,8.76,10.51,,47.59359,-54.27349
2018-12-14 05:30:00+00:00,291.0,288.0,9.07,10.33,,47.59359,-54.27349
2018-12-14 05:40:00+00:00,292.0,297.0,7.67,10.0,,47.59359,-54.27349
2018-12-14 05:50:00+00:00,293.0,301.0,10.4,13.24,,47.59359,-54.27349
2018-12-14 06:00:00+00:00,289.0,285.0,9.69,11.54,,47.59359,-54.27349
2018-12-14 06:10:00+00:00,286.0,285.0,9.42,10.97,,47.59359,-54.27349
2018-12-14 06:20:00+00:00,289.0,284.0,10.27,12.32,,47.59359,-54.27349
2018-12-14 06:30:00+00:00,283.0,283.0,9.8,11.91,,47.59359,-54.27349
2018-12-14 06:40:00+00:00,288.0,288.0,9.71,11.29,,47.59359,-54.27349
2018-12-14 06:50:00+00:00,288.0,290.0,9.2,10.56,,47.59359,-54.27349
2018-12-14 07:00:00+00:00,280.0,284.0,9.28,10.52,,47.59359,-54.27349
2018-12-14 07:10:00+00:00,287.0,285.0,8.64,10.4,,47.59359,-54.27349
2018-12-14 07:20:00+00:00,280.0,280.0,9.66,11.4,,47.59359,-54.27349
2018-12-14 07:30:00+00:00,270.0,269.0,7.03,7.94,,47.59359,-54.27349
2018-12-14 07:40:00+00:00,272.0,266.0,7.88,9.27,,47.59359,-54.27349
2018-12-14 07:50:00+00:00,263.0,266.0,8.5,10.45,,47.59359,-54.27349
2018-12-14 08:00:00+00:00,279.0,288.0,8.17,11.49,,47.59359,-54.27349
2018-12-14 08:10:00+00:00,291.0,300.0,9.74,12.53,,47.59359,-54.27349
2018-12-14 08:20:00+00:00,292.0,288.0,13.13,14.84,,47.59359,-54.27349
2018-12-14 08:30:00+00:00,297.0,296.0,11.15,13.83,,47.59359,-54.27349
2018-12-14 08:40:00+00:00,300.0,300.0,13.45,16.57,,47.59359,-54.27349
2018-12-14 08:50:00+00:00,296.0,298.0,15.34,18.15,,47.59359,-54.27349
2018-12-14 09:00:00+00:00,300.0,307.0,14.38,16.35,,47.59359,-54.27349
2018-12-14 09:10:00+00:00,294.0,303.0,13.86,16.36,,47.59359,-54.27349
2018-12-14 09:20:00+00:00,296.0,293.0,11.31,13.43,,47.59359,-54.27349
2018-12-14 09:30:00+00:00,292.0,296.0,10.39,12.09,,47.59359,-54.27349
2018-12-14 09:40:00+00:00,288.0,288.0,10.14,11.66,,47.59359,-54.27349
2018-12-14 09:50:00+00:00,289.0,286.0,9.98,11.59,,47.59359,-54.27349
2018-12-14 10:00:00+00:00,283.0,278.0,8.68,10.04,,47.59359,-54.27349
2018-12-14 10:10:00+00:00,274.0,282.0,8.62,10.95,,47.59359,-54.27349
2018-12-14 10:20:00+00:00,271.0,270.0,7.97,9.51,,47.59359,-54.27349
2018-12-14 10:30:00+00:00,262.0,265.0,7.26,8.71,,47.59359,-54.27349
2018-12-14 10:40:00+00:00,271.0,269.0,7.88,9.53,,47.59359,-54.27349
2018-12-14 10:50:00+00:00,280.0,286.0,8.45,10.7,,47.59359,-54.27349
2018-12-14 11:00:00+00:00,278.0,280.0,6.79,7.95,,47.59359,-54.27349
2018-12-14 11:10:00+00:00,271.0,276.0,7.93,10.09,,47.59359,-54.27349
2018-12-14 11:20:00+00:00,260.0,268.0,5.18,6.18,,47.59359,-54.27349
2018-12-14 11:30:00+00:00,283.0,277.0,7.23,8.71,,47.59359,-54.27349
2018-12-14 11:40:00+00:00,273.0,272.0,6.47,7.98,,47.59359,-54.27349
2018-12-14 11:50:00+00:00,265.0,264.0,8.61,11.05,,47.59359,-54.27349
2018-12-14 12:00:00+00:00,285.0,286.0,9.92,11.15,,47.59359,-54.27349
2018-12-14 12:10:00+00:00,282.0,298.0,10.31,12.86,,47.59359,-54.27349
2018-12-14 12:20:00+00:00,293.0,297.0,8.7,10.19,,47.59359,-54.27349
2018-12-14 12:30:00+00:00,277.0,288.0,8.9,10.88,,47.59359,-54.27349
2018-12-14 12:40:00+00:00,279.0,277.0,9.2,11.14,,47.59359,-54.27349
2018-12-14 12:50:00+00:00,264.0,263.0,7.82,8.99,,47.59359,-54.27349
2018-12-14 13:00:00+00:00,275.0,259.0,7.67,9.21,,47.59359,-54.27349
2018-12-14 13:10:00+00:00,281.0,285.0,7.81,9.28,,47.59359,-54.27349
2018-12-14 13:20:00+00:00,279.0,281.0,8.77,9.27,,47.59359,-54.27349
2018-12-14 13:30:00+00:00,275.0,279.0,9.16,12.42,,47.59359,-54.27349
2018-12-14 13:40:00+00:00,280.0,284.0,9.3,10.7,,47.59359,-54.27349
2018-12-14 13:50:00+00:00,292.0,291.0,10.85,14.36,,47.59359,-54.27349
2018-12-14 14:00:00+00:00,285.0,283.0,9.36,10.13,,47.59359,-54.27349
2018-12-14 14:10:00+00:00,278.0,269.0,9.05,12.64,,47.59359,-54.27349
2018-12-14 14:20:00+00:00,276.0,282.0,9.55,11.07,,47.59359,-54.27349
2018-12-14 14:30:00+00:00,269.0,267.0,9.51,12.05,,47.59359,-54.27349
2018-12-14 14:40:00+00:00,284.0,283.0,10.07,12.03,,47.59359,-54.27349
2018-12-14 14:50:00+00:00,280.0,281.0,9.69,10.66,,47.59359,-54.27349
2018-12-14 15:00:00+00:00,281.0,271.0,10.75,11.83,,47.59359,-54.27349
2018-12-14 15:10:00+00:00,288.0,278.0,10.76,12.76,,47.59359,-54.27349
2018-12-14 15:20:00+00:00,286.0,286.0,11.3,13.05,,47.59359,-54.27349
2018-12-14 15:30:00+00:00,290.0,297.0,9.39,11.1,,47.59359,-54.27349
2018-12-14 15:40:00+00:00,289.0,289.0,7.84,9.35,,47.59359,-54.27349
2018-12-14 15:50:00+00:00,296.0,289.0,12.01,14.48,,47.59359,-54.27349
2018-12-14 16:00:00+00:00,293.0,290.0,7.65,8.61,,47.59359,-54.27349
2018-12-14 16:10:00+00:00,298.0,296.0,9.96,11.25,,47.59359,-54.27349
2018-12-14 16:20:00+00:00,279.0,274.0,7.56,8.93,,47.59359,-54.27349
2018-12-14 16:30:00+00:00,276.0,275.0,7.44,9.52,,47.59359,-54.27349
2018-12-14 16:40:00+00:00,281.0,282.0,9.18,10.54,,47.59359,-54.27349
2018-12-14 16:50:00+00:00,279.0,270.0,6.57,7.76,,47.59359,-54.27349
2018-12-14 17:00:00+00:00,288.0,291.0,7.95,9.77,,47.59359,-54.27349
2018-12-14 17:10:00+00:00,297.0,310.0,7.25,8.4,,47.59359,-54.27349
2018-12-14 17:20:00+00:00,300.0,284.0,7.88,9.15,,47.59359,-54.27349
2018-12-14 17:30:00+00:00,274.0,261.0,7.52,8.8,,47.59359,-54.27349
2018-12-14 17:40:00+00:00,279.0,280.0,8.45,9.7,,47.59359,-54.27349
2018-12-14 17:50:00+00:00,292.0,297.0,8.05,9.68,,47.59359,-54.27349
2018-12-14 18:00:00+00:00,299.0,296.0,9.09,10.12,,47.59359,-54.27349
2018-12-14 18:10:00+00:00,303.0,310.0,9.08,10.94,,47.59359,-54.27349
2018-12-14 18:20:00+00:00,294.0,290.0,10.33,12.06,,47.59359,-54.27349
2018-12-14 18:30:00+00:00,293.0,298.0,9.58,10.8,,47.59359,-54.27349
2018-12-14 18:40:00+00:00,301.0,301.0,9.24,10.62,,47.59359,-54.27349
2018-12-14 18:50:00+00:00,303.0,309.0,9.94,11.34,,47.59359,-54.27349
2018-12-14 19:00:00+00:00,293.0,290.0,10.45,12.17,,47.59359,-54.27349
2018-12-14 19:10:00+00:00,290.0,295.0,10.26,12.61,,47.59359,-54.27349
2018-12-14 19:20:00+00:00,279.0,281.0,9.65,11.71,,47.59359,-54.27349
2018-12-14 19:30:00+00:00,282.0,284.0,8.44,9.63,,47.59359,-54.27349
2018-12-14 19:40:00+00:00,285.0,291.0,7.69,9.71,,47.59359,-54.27349
2018-12-14 19:50:00+00:00,279.0,290.0,7.85,8.72,,47.59359,-54.27349
2018-12-14 20:00:00+00:00,290.0,292.0,9.46,10.12,,47.59359,-54.27349
2018-12-14 20:10:00+00:00,277.0,274.0,8.02,8.98,,47.59359,-54.27349
2018-12-14 20:20:00+00:00,279.0,273.0,8.08,9.51,,47.59359,-54.27349
2018-12-14 20:30:00+00:00,293.0,298.0,8.74,10.68,,47.59359,-54.27349
2018-12-14 20:40:00+00:00,278.0,278.0,7.98,8.99,,47.59359,-54.27349
2018-12-14 20:50:00+00:00,282.0,286.0,7.92,9.1,,47.59359,-54.27349
2018-12-14 21:00:00+00:00,270.0,267.0,7.71,9.29,,47.59359,-54.27349
2018-12-14 21:10:00+00:00,278.0,277.0,6.0,7.49,,47.59359,-54.27349
2018-12-14 21:20:00+00:00,272.0,279.0,5.85,7.12,,47.59359,-54.27349
2018-12-14 21:30:00+00:00,260.0,276.0,5.98,7.23,,47.59359,-54.27349
2018-12-14 21:40:00+00:00,254.0,252.0,5.67,6.55,,47.59359,-54.27349
2018-12-14 21:50:00+00:00,274.0,269.0,6.73,7.73,,47.59359,-54.27349
2018-12-14 22:00:00+00:00,255.0,256.0,7.68,8.57,,47.59359,-54.27349
2018-12-14 22:10:00+00:00,260.0,260.0,7.43,9.02,,47.59359,-54.27349
2018-12-14 22:20:00+00:00,261.0,253.0,7.91,8.81,,47.59359,-54.27349
2018-12-14 22:30:00+00:00,264.0,266.0,8.23,9.02,,47.59359,-54.27349
2018-12-14 22:40:00+00:00,270.0,274.0,8.99,10.54,,47.59359,-54.27349
2018-12-14 22:50:00+00:00,264.0,262.0,8.35,9.07,,47.59359,-54.27349
2018-12-14 23:00:00+00:00,265.0,261.0,8.55,9.12,,47.59359,-54.27349
2018-12-14 23:10:00+00:00,257.0,256.0,9.2,10.81,,47.59359,-54.27349
2018-12-14 23:20:00+00:00,263.0,265.0,9.34,10.69,,47.59359,-54.27349
2018-12-14 23:30:00+00:00,272.0,274.0,9.46,10.64,,47.59359,-54.27349
2018-12-14 23:40:00+00:00,271.0,268.0,9.36,10.44,,47.59359,-54.27349
2018-12-14 23:50:00+00:00,271.0,268.0,9.63,10.78,,47.59359,-54.27349
